Regional Weather Roundup
Issued by NWS Charleston, SC

Current Version | Previous Version | Graphics & Text | Print | Product List | Glossary On
Versions: 1 2 3 4 5 6 7 8 9 10 11 12 13 14 15 16 17 18 19 20 21 22 23 24 25 26 27 28 29 30 31 32 33 34 35 36 37 38 39 40 41 42 43 44 45 46 47 48 49 50
000 ASUS42 KCHS 012211 RWRCHS REGIONAL WEATHER ROUNDUP NATIONAL WEATHER SERVICE CHARLESTON SC 500 PM EST SUN MAR 01 2015 NOTE: "FAIR" INDICATES FEW OR NO CLOUDS BELOW 12,000 FEET WITH NO SIGNIFICANT WEATHER AND/OR OBSTRUCTIONS TO VISIBILITY. NOT ALL STATIONS ARE QUALITY CONTROLLED BY THE NATIONAL WEATHER SERVICE. USE DATA WITH CAUTION...ESPECIALLY DEWPOINT OBSERVATIONS. SCZ027-030-031-034>040-042>050-012300- ...SOUTHEAST SOUTH CAROLINA... CITY SKY/WX TMP DP RH WIND PRES REMARKS N CHARLESTON LGT RAIN 44 43 96 N7 30.39S WATERFRONT PRK N/A 46 N/A N/A NW5 N/A MOUNT PLEASANT RAIN 46 45 93 NW6 30.38R VSB 3/4 PINOPOLIS NOT AVBL MONCKS CORNER CLOUDY 43 41 93 N3 30.39S FOG SUMMERVILLE CLOUDY 43 43 100 N3 30.40F FOG BEAUFORT MCAS CLOUDY 47 45 93 N6 30.39S BEAUFORT ARPT CLOUDY 46 46 100 CALM 30.38S HILTON HEAD IS CLOUDY 48 46 93 N6 30.39S WALTERBORO CLOUDY 45 45 100 N3 30.41S ALLENDALE CLOUDY 45 43 93 N6 30.39S ...SOUTHERN MIDLANDS AND PEE DEE... CITY SKY/WX TMP DP RH WIND PRES REMARKS GEORGETOWN NOT AVBL KINGSTREE NOT AVBL ORANGEBURG CLOUDY 43 38 82 N5 30.40F BARNWELL CLOUDY 45 43 93 N5 30.40S AIKEN CLOUDY 41 41 100 N5 30.43S FOG MANNING CLOUDY N/A N/A N/A N3 30.40F COLUMBIA CLOUDY 41 38 89 CALM 30.41S FOG SUMTER CLOUDY 40 39 95 N6 30.39S FOG WCI 36 FLORENCE CLOUDY 39 37 92 N3 30.40F MYRTLE BEACH CLOUDY 46 43 87 N9 30.40S FOG N MYRTLE BEACH LGT RAIN 46 43 89 N6 30.37S $$ GAZ063-065-086>088-099>101-113>116-118-119-134>141-150-012300- ...SOUTHEAST GEORGIA... CITY SKY/WX TMP DP RH WIND PRES REMARKS SAVANNAH ARPT CLOUDY 51 46 83 NE6 30.38S HUNTER AAF NOT AVBL FORT STEWART CLOUDY 52 48 87 N2 30.35S STATESBORO CLOUDY 47 47 100 CALM 30.39S SYLVANIA CLOUDY 45 45 98 NE5 30.39F CLAXTON CLOUDY 48 46 93 CALM 30.39R ...CSRA...CENTRAL AND FAR SOUTHEAST GEORGIA... CITY SKY/WX TMP DP RH WIND PRES REMARKS THOMSON CLOUDY 43 43 100 CALM 30.46R AUGUSTA-BUSH CLOUDY 43 40 89 N7 30.41S AUGUSTA-DANIEL CLOUDY 43 40 89 N7 30.41S SWAINSBORO CLOUDY 48 46 93 CALM 30.40R VIDALIA CLOUDY 50 46 87 NE5 30.38S EASTMAN CLOUDY 48 48 100 N5 30.41S HAZLEHURST CLOUDY 51 51 98 N3 30.36S ALMA CLOUDY 55 50 83 N5 30.36R WAYCROSS CLOUDY 61 55 81 NE3 30.35S JESUP CLOUDY 57 54 88 NE3 30.37R BAXLEY CLOUDY 55 50 82 N5 30.37R BRUNSWICK CLOUDY 55 52 88 E8 30.36F SAINT SIMONS CLOUDY 51 49 92 E8 30.35F FOG $$ SCZ027-028-034-036>038-045-046-048>050-GAZ119-141-012300- ...LAKE AND SUPPLEMENTAL COASTAL OBSERVATIONS... STATION/POSITION TIME TEMP WIND PRES WAVE SWELL AIR SEA DIR/SP/G HT/PER HT/PER/DIR (UTC) (F) (DEG/KT/KT) (MB) (FT/S) (FT/S/D) UPR LAKE MARION NOT AVBL WINYAH BAY NOT AVBL LAKE MURRAY 2100 39 340/ 1/ 3 1029.5F ACE BASIN NERRS NOT AVBL FORT PULASKI 2106 49 48 340/ 5/ 5 1028.8F SAPELO ISLAND 2100 52 360/ 7 1028.0F $$ ANZ835-935-AMZ111-154-330-350-352-354-370-450-454-472-012300- ...C-MAN AND BUOY OBSERVATIONS... STATION/POSITION TIME TEMP WIND PRES WAVE SWELL AIR SEA DIR/SP/G HT/PER HT/PER/DIR (UTC) (F) (DEG/KT/KT) (MB) (FT/S) (FT/S/D) BUOY 41004 2150 56 69 10/ 12/ 14 1027.3F 7/ 8 5/ 8 BUOY 41008 2150 49 53 30/ 12/ 14 1027.8F 6/ 9 5/100/ 9 FOLLY BEACH CMAN 2200 45 320/ 4/ 7 1029.2R CAPERS NEARSHORE NOT AVBL FRIPP NEARSHORE 2100 46 360/ 6/ 8 1027.7F STATION/POSITION TIME TEMP WIND PRES WAVE SWELL AIR SEA DIR/SP/G HT/PER HT/PER/DIR (UTC) (F) (DEG/KT/KT) (MB) (FT/S) (FT/S/D) 5E ST. MARYS GA 2121 52 N/A 6/ 8 2/ 80/11 FRYING PAN BUOY 2150 66 62 180/ 12/ 14 1027.9F 7/ 8 5/100/ 8 BUOY 41025 NOT AVBL CAPE LOOKOUT NC 2100 57 160/ 13/ 13 1027.7F BUOY 41002 2150 69 72 120/ 17/ 19 1029.5R 8/10 5/ 80/10 BUOY 41010 2120 72 75 100/ 16/ 17 1026.5F ST AUGUSTINE FL 2200 51 360/ 16/ 17 1027.7F $$

USA.gov is the U.S. government's official web portal to all federal, state and local government web resources and services.